Overview Statistics Trail Chart Weather Telemetry Raw packets
 

This is the latest recevied weather packets stored in our database for station/object NK7E-2. If no packets are shown the sender has not sent any weather packets the latest 10 day(s).

<< 17 18 19 20 21 22 23 >>
Time Temp. Humidity Pressure Rain* Wind** Luminosity Snow
1788187216 23.89° C 63% 1029.2 hPa 0 mm - - -
1788186616 23.33° C 65% 1029.4 hPa 0 mm - - -
1788186016 22.78° C 67% 1029.4 hPa 0 mm - - -
1788185416 22.78° C 66% 1029.5 hPa 0 mm - - -
1788184816 22.22° C 70% 1029.8 hPa 0 mm - - -
1788184216 22.22° C 73% 1030.1 hPa 0 mm - - -
1788183616 22.22° C 73% 1030.2 hPa 0 mm - - -
1788183016 22.78° C 72% 1030.5 hPa 0 mm - - -
1788182427 22.78° C 71% 1030.4 hPa 0 mm - - -
1788181816 23.33° C 67% 1030.1 hPa 0 mm - - -
1788181216 23.33° C 66% 1029.7 hPa 0 mm - - -
1788180616 22.78° C 66% 1029.2 hPa 0 mm - - -
1788180016 22.78° C 66% 1028.8 hPa 0 mm - - -
1788179416 22.22° C 69% 1028.3 hPa 0 mm - - -
1788178816 22.22° C 69% 1028.1 hPa 0 mm - - -
1788178216 22.22° C 69% 1027.8 hPa 0 mm - - -
1788177616 22.78° C 68% 1027.5 hPa 0 mm - - -
1788177016 22.78° C 68% 1027.3 hPa 0 mm - - -
1788176416 22.22° C 67% 1027.4 hPa 0 mm - - -
1788175816 22.22° C 69% 1027.2 hPa 0 mm - - -
1788175216 22.78° C 70% 1027.3 hPa 0 mm - - -
1788174616 22.78° C 73% 1027.2 hPa 0 mm - - -
1788174016 22.78° C 74% 1027.1 hPa 0 mm - - -
1788173416 22.78° C 74% 1027.2 hPa 0 mm - - -
1788172816 22.78° C 74% 1027.3 hPa 0 mm - - -

* Rain latest hour (hover to see other rain measurements)
** Current wind speed in m/s (hover to see current wind gust speed)